DW4565 Weather Reports


time (UTC)temp
C
wind
direction
speed
KPH
gust
KPH
rain 1hr
cm
rain 24hr
cm
rain mn
cm
humidity
%
barometer
mb
20260506084532 8 250 4.8 16.1 0.00 0.00 0.00 91 1019.8
20260506083040 8 243 6.4 17.7 0.00 0.00 0.00 91 1019.9
20260506081532 9 243 6.4 14.5 0.00 0.00 0.00 91 1020.0
20260506073031 9 309 4.8 19.3 0.00 0.00 0.00 93 1020.0
20260506071533 8 242 4.8 12.9 0.00 0.00 0.00 93 1020.1
20260506061534 8 160 1.6 11.3 0.00 0.00 0.00 94 1020.4
20260506044537 6 265 8.0 16.1 0.00 0.00 0.00 93 1020.3
20260506043029 6 240 4.8 11.3 0.00 0.00 0.00 93 1020.5
20260506041531 6 243 6.4 16.1 0.00 0.00 0.00 93 1020.6
20260506040030 6 288 3.2 16.1 0.00 0.00 0.00 92 1020.6
20260506034532 6 242 3.2 12.9 0.00 0.00 0.00 92 1020.3
20260506033032 6 285 3.2 11.3 0.00 0.00 0.00 92 1020.3
20260506031537 6 203 3.2 12.9 0.00 0.00 0.00 92 1019.9
20260506030029 6 234 3.2 11.3 0.00 0.00 0.00 92 1019.8
20260506024534 6 254 1.6 11.3 0.00 0.00 0.00 92 1019.8
20260506023028 6 242 3.2 8.0 0.00 0.00 0.00 92 1019.5
20260506021532 6 245 3.2 9.7 0.00 0.00 0.00 91 1019.3
20260506020031 6 245 6.4 19.3 0.00 0.00 0.00 91 1019.2
20260506014530 6 222 8.0 17.7 0.00 0.00 0.00 90 1019.2
20260506013031 6 238 9.7 17.7 0.00 0.00 0.00 89 1019.1
20260506011531 6 256 4.8 12.9 0.00 0.00 0.00 90 1019.1
20260506010032 6 184 4.8 12.9 0.00 0.00 0.00 89 1018.9
20260506004555 6 232 3.2 12.9 0.00 0.00 0.00 89 1018.6
20260506003032 6 250 3.2 11.3 0.00 0.00 0.00 88 1018.6
20260506001531 6 26 3.2 8.0 0.00 0.00 0.00 87 1018.2
20260506000029 6 244 1.6 9.7 0.00 0.00 0.00 85 1017.9
20260505234601 7 347 3.2 14.5 0.00 0.00 0.00 84 1017.5
20260505233028 7 264 4.8 14.5 0.00 0.00 0.00 83 1017.2
20260505231535 8 285 6.4 16.1 0.00 0.00 0.00 81 1016.8
20260505230032 8 257 9.7 22.5 0.00 0.00 0.00 80 1016.5
20260505224532 9 266 6.4 14.5 0.00 0.00 0.00 78 1016.3
20260505223031 10 246 6.4 17.7 0.00 0.00 0.00 76 1016.1
20260505221528 10 277 4.8 16.1 0.00 0.00 0.00 73 1015.8
20260505220028 11 250 3.2 9.7 0.00 0.00 0.00 70 1015.5
20260505214537 12 247 4.8 14.5 0.00 0.00 0.00 68 1015.2
20260505213029 12 30 8.0 20.9 0.00 0.00 0.00 66 1015.0
20260505211530 12 257 8.0 29.0 0.00 0.00 0.00 66 1014.8
20260505210031 12 246 11.3 24.1 0.00 0.00 0.00 62 1014.6
20260505204530 14 250 6.4 20.9 0.00 0.00 0.00 56 1014.4
20260505203032 15 247 8.0 29.0 0.00 0.00 0.00 49 1014.2
20260505201532 16 241 9.7 20.9 0.00 0.00 0.00 42 1014.0
20260505200035 16 220 11.3 29.0 0.00 0.00 0.00 40 1013.7
20260505194530 16 255 11.3 35.4 0.00 0.00 0.00 41 1013.5
20260505193031 15 283 14.5 32.2 0.00 0.00 0.00 41 1013.2
20260505191530 15 258 11.3 33.8 0.00 0.00 0.00 43 1013.2
20260505190031 15 250 16.1 46.7 0.00 0.00 0.00 44 1012.9
20260505184530 15 260 11.3 24.1 0.00 0.00 0.00 46 1012.9
20260505183042 15 243 12.9 27.4 0.00 0.00 0.00 47 1012.8
20260505181531 15 252 11.3 24.1 0.00 0.00 0.00 45 1012.6
20260505180033 15 255 14.5 33.8 0.00 0.00 0.00 48 1012.8
20260505174532 15 246 16.1 32.2 0.00 0.00 0.00 47 1012.6
20260505173039 15 249 8.0 27.4 0.00 0.00 0.00 49 1012.5
20260505171534 15 248 12.9 29.0 0.00 0.00 0.00 51 1012.4
20260505170034 15 254 9.7 38.6 0.00 0.00 0.00 50 1012.3
20260505164530 16 229 8.0 29.0 0.00 0.00 0.00 47 1012.2
20260505163029 15 263 9.7 29.0 0.00 0.00 0.00 44 1012.0
20260505161530 15 245 11.3 30.6 0.00 0.00 0.00 47 1011.9
20260505153030 14 241 14.5 38.6 0.00 0.00 0.00 50 1011.6
20260505151528 14 243 9.7 30.6 0.00 0.00 0.00 49 1011.6
20260505124531 11 241 16.1 29.0 0.00 0.00 0.00 69 1010.0
20260505123031 10 269 12.9 30.6 0.00 0.00 0.00 71 1009.9
20260505121528 10 248 11.3 30.6 0.00 0.00 0.00 71 1009.6
20260505120038 11 252 11.3 25.7 0.00 0.00 0.00 73 1009.1
20260505114531 10 233 6.4 17.7 0.00 0.00 0.00 76 1009.0
20260505113032 10 213 9.7 25.7 0.00 0.00 0.00 77 1008.8
20260505111530 9 264 6.4 17.7 0.00 0.00 0.00 79 1008.8
20260505101536 7 240 6.4 16.1 0.00 0.00 0.00 85 1008.4
20260505100030 6 253 3.2 12.9 0.00 0.00 0.00 86 1007.9
20260505094531 6 77 6.4 19.3 0.00 0.00 0.00 87 1007.5
20260505093031 5 270 4.8 19.3 0.00 0.00 0.00 88 1007.4
20260505091530 5 254 8.0 22.5 0.00 0.00 0.00 89 1007.3
20260505090028 4 228 4.8 17.7 0.00 0.00 0.00 90 1007.2